| time (UTC) | temp F | wind direction | speed MPH | gust MPH | rain 1hr in | rain 24hr in | rain mn in | humidity % | barometer mb |
| 20260507124546 | 45 | 307 | 8.0 | 14.0 | 0.00 | 1.32 | 0.24 | 87 | 1005.4 |
| 20260507124015 | 45 | 334 | 7.0 | 14.0 | 0.00 | 1.32 | 0.24 | 88 | 1005.3 |
| 20260507123514 | 45 | 322 | 9.0 | 14.0 | 0.00 | 1.32 | 0.24 | 87 | 1005.4 |
| 20260507123052 | 45 | 338 | 6.0 | 14.0 | 0.00 | 1.32 | 0.24 | 90 | 1005.4 |
| 20260507122514 | 44 | 327 | 7.0 | 13.0 | 0.00 | 1.32 | 0.24 | 88 | 1005.2 |
| 20260507122013 | 44 | 324 | 7.0 | 15.0 | 0.00 | 1.32 | 0.24 | 89 | 1005.2 |
| 20260507121543 | 44 | 322 | 8.0 | 14.0 | 0.00 | 1.32 | 0.24 | 89 | 1005.4 |
| 20260507121016 | 44 | 295 | 6.0 | 13.0 | 0.00 | 1.32 | 0.24 | 89 | 1005.4 |
| 20260507120513 | 44 | 324 | 9.0 | 13.0 | 0.00 | 1.32 | 0.24 | 89 | 1005.2 |
| 20260507120032 | 44 | 340 | 6.0 | 10.0 | 0.00 | 1.32 | 0.24 | 89 | 1005.3 |
| 20260507115509 | 44 | 335 | 4.0 | 11.0 | 0.00 | 1.32 | 0.24 | 91 | 1005.4 |
| 20260507115010 | 43 | 335 | 5.0 | 13.0 | 0.00 | 1.32 | 0.24 | 91 | 1005.4 |
| 20260507114533 | 43 | 332 | 7.0 | 13.0 | 0.00 | 1.32 | 0.24 | 90 | 1005.3 |
| 20260507114013 | 43 | 337 | 6.0 | 12.0 | 0.00 | 1.32 | 0.24 | 90 | 1005.4 |
| 20260507113514 | 43 | 301 | 6.0 | 12.0 | 0.00 | 1.32 | 0.24 | 90 | 1005.3 |
| 20260507113030 | 43 | 282 | 6.0 | 13.0 | 0.00 | 1.32 | 0.24 | 90 | 1005.3 |
| 20260507112514 | 43 | 312 | 6.0 | 13.0 | 0.00 | 1.32 | 0.24 | 90 | 1005.2 |
| 20260507112015 | 43 | 312 | 5.0 | 11.0 | 0.00 | 1.32 | 0.24 | 90 | 1005.1 |
| 20260507111523 | 43 | 305 | 6.0 | 11.0 | 0.00 | 1.32 | 0.24 | 90 | 1005.0 |
| 20260507111011 | 43 | 333 | 5.0 | 9.0 | 0.00 | 1.32 | 0.24 | 91 | 1005.0 |
| 20260507110517 | 43 | 295 | 4.0 | 10.0 | 0.00 | 1.32 | 0.24 | 91 | 1005.0 |
| 20260507110032 | 43 | 321 | 6.0 | 10.0 | 0.00 | 1.32 | 0.24 | 90 | 1004.9 |
| 20260507105512 | 43 | 312 | 4.0 | 9.0 | 0.00 | 1.32 | 0.24 | 91 | 1005.0 |
| 20260507105013 | 43 | 341 | 4.0 | 11.0 | 0.00 | 1.32 | 0.24 | 91 | 1005.0 |
| 20260507104536 | 42 | 320 | 4.0 | 11.0 | 0.00 | 1.32 | 0.24 | 91 | 1005.1 |
| 20260507104016 | 42 | 320 | 6.0 | 13.0 | 0.00 | 1.32 | 0.24 | 92 | 1005.0 |
| 20260507103511 | 42 | 318 | 7.0 | 13.0 | 0.00 | 1.32 | 0.24 | 91 | 1005.0 |
| 20260507103031 | 42 | 338 | 6.0 | 11.0 | 0.00 | 1.32 | 0.24 | 91 | 1005.0 |
| 20260507102517 | 42 | 290 | 6.0 | 10.0 | 0.00 | 1.32 | 0.24 | 91 | 1005.1 |
| 20260507102013 | 42 | 303 | 5.0 | 10.0 | 0.00 | 1.32 | 0.24 | 91 | 1005.2 |
| 20260507101539 | 42 | 309 | 4.0 | 10.0 | 0.00 | 1.32 | 0.24 | 91 | 1005.1 |
| 20260507101012 | 42 | 290 | 7.0 | 11.0 | 0.00 | 1.32 | 0.24 | 91 | 1005.0 |
| 20260507100513 | 43 | 282 | 6.0 | 11.0 | 0.00 | 1.32 | 0.24 | 90 | 1004.9 |
| 20260507100034 | 43 | 302 | 4.0 | 11.0 | 0.00 | 1.32 | 0.24 | 92 | 1004.8 |
| 20260507095514 | 43 | 328 | 4.0 | 10.0 | 0.00 | 1.33 | 0.24 | 92 | 1004.7 |
| 20260507095006 | 43 | 316 | 5.0 | 10.0 | 0.00 | 1.33 | 0.24 | 92 | 1004.5 |
| 20260507094533 | 43 | 335 | 5.0 | 9.0 | 0.00 | 1.33 | 0.24 | 93 | 1004.3 |
| 20260507094015 | 42 | 318 | 5.0 | 9.0 | 0.00 | 1.33 | 0.24 | 94 | 1004.0 |
| 20260507093513 | 43 | 305 | 3.0 | 6.0 | 0.00 | 1.33 | 0.24 | 93 | 1004.1 |
| 20260507093039 | 43 | 327 | 4.0 | 10.0 | 0.00 | 1.33 | 0.24 | 93 | 1003.9 |
| 20260507092511 | 43 | 311 | 7.0 | 10.0 | 0.00 | 1.33 | 0.24 | 93 | 1004.2 |
| 20260507092011 | 43 | 308 | 5.0 | 9.0 | 0.00 | 1.33 | 0.24 | 92 | 1004.1 |
| 20260507091519 | 43 | 331 | 2.0 | 6.0 | 0.00 | 1.33 | 0.24 | 92 | 1004.4 |
| 20260507091010 | 43 | 295 | 2.0 | 7.0 | 0.00 | 1.33 | 0.24 | 92 | 1004.5 |
| 20260507090508 | 43 | 299 | 4.0 | 10.0 | 0.00 | 1.33 | 0.24 | 91 | 1004.5 |
| 20260507090034 | 43 | 314 | 5.0 | 10.0 | 0.00 | 1.33 | 0.24 | 92 | 1004.5 |
| 20260507085509 | 43 | 303 | 0.0 | 4.0 | 0.00 | 1.33 | 0.24 | 93 | 1004.4 |
| 20260507085014 | 43 | 295 | 1.0 | 4.0 | 0.00 | 1.33 | 0.24 | 92 | 1004.4 |
| 20260507084532 | 43 | 324 | 0.0 | 3.0 | 0.00 | 1.33 | 0.24 | 92 | 1004.1 |
| 20260507084017 | 44 | 324 | 0.0 | 5.0 | 0.00 | 1.33 | 0.24 | 91 | 1004.3 |
| 20260507083511 | 44 | 324 | 2.0 | 10.0 | 0.00 | 1.33 | 0.24 | 91 | 1004.3 |
| 20260507083038 | 44 | 327 | 4.0 | 13.0 | 0.00 | 1.33 | 0.24 | 89 | 1004.4 |
| 20260507082511 | 44 | 301 | 7.0 | 13.0 | 0.00 | 1.33 | 0.24 | 90 | 1004.5 |
| 20260507082013 | 44 | 290 | 7.0 | 12.0 | 0.00 | 1.33 | 0.24 | 90 | 1004.4 |
| 20260507081534 | 44 | 331 | 8.0 | 15.0 | 0.00 | 1.33 | 0.24 | 94 | 1004.0 |
| 20260507081011 | 44 | 352 | 11.0 | 15.0 | 0.00 | 1.33 | 0.24 | 94 | 1003.9 |
| 20260507080515 | 44 | 336 | 10.0 | 15.0 | 0.00 | 1.33 | 0.24 | 92 | 1003.9 |
| 20260507080035 | 44 | 303 | 6.0 | 12.0 | 0.00 | 1.33 | 0.24 | 92 | 1003.8 |
| 20260507075511 | 44 | 303 | 7.0 | 11.0 | 0.00 | 1.35 | 0.24 | 91 | 1003.9 |
| 20260507075016 | 44 | 299 | 5.0 | 13.0 | 0.02 | 1.35 | 0.24 | 91 | 1003.8 |
| 20260507074530 | 44 | 239 | 5.0 | 13.0 | 0.02 | 1.35 | 0.24 | 91 | 1003.9 |
| 20260507074012 | 44 | 259 | 4.0 | 9.0 | 0.02 | 1.35 | 0.24 | 92 | 1003.9 |
| 20260507073515 | 44 | 282 | 4.0 | 10.0 | 0.02 | 1.35 | 0.24 | 92 | 1003.9 |
| 20260507073035 | 44 | 328 | 4.0 | 14.0 | 0.02 | 1.35 | 0.24 | 92 | 1003.9 |
| 20260507072511 | 44 | 309 | 10.0 | 14.0 | 0.02 | 1.35 | 0.24 | 92 | 1004.2 |
| 20260507072012 | 45 | 318 | 8.0 | 14.0 | 0.02 | 1.35 | 0.24 | 92 | 1003.7 |
| 20260507071553 | 45 | 312 | 7.0 | 12.0 | 0.03 | 1.35 | 0.24 | 93 | 1003.9 |
| 20260507071020 | 45 | 328 | 7.0 | 12.0 | 0.03 | 1.35 | 0.24 | 93 | 1003.8 |
| 20260507070510 | 45 | 305 | 8.0 | 12.0 | 0.03 | 1.35 | 0.24 | 94 | 1003.8 |
| 20260507070022 | 45 | 322 | 7.0 | 12.0 | 0.03 | 1.35 | 0.24 | 94 | 1003.9 |
| 20260507065517 | 45 | 295 | 6.0 | 11.0 | 0.04 | 1.35 | 0.24 | 94 | 1003.9 |
| 20260507065011 | 45 | 306 | 5.0 | 10.0 | 0.02 | 1.33 | 0.22 | 94 | 1003.9 |
| 20260507064534 | 45 | 295 | 5.0 | 9.0 | 0.02 | 1.33 | 0.22 | 94 | 1003.9 |
| 20260507064014 | 45 | 251 | 4.0 | 8.0 | 0.03 | 1.33 | 0.22 | 94 | 1003.7 |
| 20260507063513 | 45 | 309 | 4.0 | 9.0 | 0.04 | 1.33 | 0.22 | 94 | 1003.6 |
| 20260507063041 | 46 | 306 | 5.0 | 9.0 | 0.04 | 1.33 | 0.22 | 95 | 1003.5 |
| 20260507062511 | 46 | 318 | 4.0 | 8.0 | 0.07 | 1.33 | 0.22 | 95 | 1003.4 |
| 20260507062013 | 46 | 307 | 3.0 | 9.0 | 0.08 | 1.33 | 0.22 | 95 | 1003.5 |
| 20260507061537 | 46 | 234 | 4.0 | 9.0 | 0.07 | 1.32 | 0.21 | 95 | 1003.3 |
| 20260507061008 | 46 | 290 | 4.0 | 10.0 | 0.07 | 1.32 | 0.21 | 95 | 1003.3 |
| 20260507060514 | 46 | 303 | 6.0 | 10.0 | 0.08 | 1.32 | 0.21 | 95 | 1003.1 |
| 20260507060035 | 46 | 322 | 6.0 | 9.0 | 0.08 | 1.32 | 0.21 | 95 | 1002.7 |
| 20260507055513 | 46 | 342 | 4.0 | 7.0 | 0.08 | 1.31 | 0.19 | 95 | 1003.0 |
| 20260507055015 | 46 | 313 | 3.0 | 9.0 | 0.09 | 1.31 | 0.19 | 95 | 1003.4 |
| 20260507054546 | 46 | 295 | 5.0 | 9.0 | 0.09 | 1.31 | 0.19 | 95 | 1003.6 |
| 20260507054013 | 46 | 299 | 3.0 | 9.0 | 0.09 | 1.30 | 0.19 | 96 | 1003.5 |
| 20260507053515 | 46 | 321 | 3.0 | 6.0 | 0.08 | 1.29 | 0.18 | 96 | 1003.7 |
| 20260507053049 | 46 | 321 | 3.0 | 6.0 | 0.07 | 1.27 | 0.16 | 96 | 1003.8 |
| 20260507052513 | 46 | 314 | 1.0 | 8.0 | 0.06 | 1.26 | 0.14 | 96 | 1003.9 |
| 20260507052013 | 46 | 290 | 3.0 | 8.0 | 0.06 | 1.25 | 0.14 | 96 | 1003.8 |
| 20260507051549 | 46 | 315 | 2.0 | 5.0 | 0.07 | 1.25 | 0.14 | 97 | 1003.8 |
| 20260507051010 | 46 | 276 | 3.0 | 5.0 | 0.09 | 1.25 | 0.14 | 97 | 1003.4 |
| 20260507050518 | 46 | 304 | 3.0 | 6.0 | 0.11 | 1.24 | 0.13 | 96 | 1003.3 |
| 20260507050049 | 46 | 312 | 1.0 | 10.0 | 0.13 | 1.24 | 0.13 | 96 | 1003.3 |
| 20260507045510 | 46 | 331 | 6.0 | 11.0 | 0.14 | 1.23 | 0.12 | 96 | 1003.3 |
| 20260507045016 | 46 | 336 | 6.0 | 9.0 | 0.14 | 1.22 | 0.11 | 96 | 1003.5 |
| 20260507044545 | 46 | 305 | 6.0 | 9.0 | 0.17 | 1.22 | 0.11 | 96 | 1003.6 |
| 20260507044011 | 47 | 333 | 5.0 | 8.0 | 0.17 | 1.20 | 0.09 | 96 | 1003.5 |
| 20260507043512 | 47 | 337 | 5.0 | 8.0 | 0.18 | 1.20 | 0.09 | 97 | 1003.6 |
| 20260507043041 | 47 | 327 | 4.0 | 8.0 | 0.18 | 1.19 | 0.09 | 97 | 1003.6 |
| 20260507042511 | 47 | 332 | 3.0 | 9.0 | 0.18 | 1.19 | 0.09 | 97 | 1003.7 |
| 20260507042016 | 47 | 312 | 4.0 | 10.0 | 0.18 | 1.18 | 0.08 | 97 | 1003.7 |
| 20260507041541 | 47 | 325 | 6.0 | 15.0 | 0.17 | 1.17 | 0.07 | 97 | 1003.7 |
| 20260507041014 | 47 | 329 | 8.0 | 15.0 | 0.14 | 1.15 | 0.04 | 97 | 1003.8 |
| 20260507040516 | 47 | 336 | 6.0 | 11.0 | 0.13 | 1.13 | 0.02 | 97 | 1003.9 |
| 20260507040059 | 47 | 307 | 7.0 | 11.0 | 0.13 | 1.11 | 0.00 | 97 | 1004.1 |
| 20260507035513 | 47 | 305 | 4.0 | 9.0 | 0.12 | 1.07 | 1.07 | 97 | 1004.2 |
| 20260507035014 | 47 | 305 | 3.0 | 8.0 | 0.13 | 1.06 | 1.06 | 97 | 1003.8 |
| 20260507034554 | 47 | 332 | 4.0 | 10.0 | 0.12 | 1.04 | 1.04 | 96 | 1003.6 |
| 20260507034015 | 48 | 330 | 4.0 | 7.0 | 0.12 | 1.04 | 1.04 | 97 | 1003.4 |
| 20260507033510 | 48 | 326 | 3.0 | 8.0 | 0.12 | 1.03 | 1.03 | 97 | 1003.3 |
| 20260507033044 | 48 | 331 | 4.0 | 9.0 | 0.12 | 1.02 | 1.02 | 97 | 1003.2 |
| 20260507032513 | 48 | 333 | 5.0 | 9.0 | 0.12 | 1.02 | 1.02 | 97 | 1003.2 |
| 20260507032015 | 48 | 324 | 3.0 | 6.0 | 0.12 | 1.01 | 1.01 | 97 | 1003.2 |
| 20260507031539 | 48 | 330 | 4.0 | 6.0 | 0.13 | 1.01 | 1.01 | 98 | 1003.3 |
| 20260507031011 | 48 | 324 | 2.0 | 4.0 | 0.13 | 1.00 | 1.00 | 98 | 1003.2 |
| 20260507030514 | 48 | 342 | 1.0 | 4.0 | 0.13 | 1.00 | 1.00 | 97 | 1003.2 |
| 20260507030040 | 48 | 342 | 2.0 | 5.0 | 0.12 | 0.97 | 0.97 | 97 | 1003.3 |
| 20260507025515 | 48 | 343 | 3.0 | 5.0 | 0.11 | 0.97 | 0.96 | 97 | 1003.2 |
| 20260507025010 | 48 | 15 | 0.0 | 2.0 | 0.09 | 0.95 | 0.94 | 97 | 1003.3 |
| 20260507024545 | 48 | 15 | 0.0 | 2.0 | 0.09 | 0.94 | 0.93 | 97 | 1003.6 |
| 20260507024014 | 48 | 15 | 0.0 | 2.0 | 0.08 | 0.91 | 0.91 | 97 | 1003.8 |
| 20260507023514 | 48 | 342 | 0.0 | 2.0 | 0.08 | 0.91 | 0.91 | 97 | 1003.9 |
| 20260507023039 | 48 | 342 | 0.0 | 2.0 | 0.08 | 0.91 | 0.90 | 97 | 1004.0 |
| 20260507022515 | 48 | 342 | 0.0 | 4.0 | 0.07 | 0.90 | 0.89 | 97 | 1004.1 |
| 20260507022015 | 48 | 343 | 1.0 | 4.0 | 0.08 | 0.90 | 0.89 | 97 | 1004.3 |
| 20260507021538 | 48 | 341 | 2.0 | 7.0 | 0.07 | 0.89 | 0.88 | 97 | 1004.4 |
| 20260507021015 | 49 | 331 | 4.0 | 7.0 | 0.06 | 0.88 | 0.87 | 96 | 1004.3 |
| 20260507020517 | 49 | 272 | 2.0 | 5.0 | 0.04 | 0.87 | 0.85 | 97 | 1004.3 |
| 20260507020056 | 49 | 325 | 2.0 | 8.0 | 0.04 | 0.87 | 0.85 | 97 | 1004.3 |
| 20260507015516 | 49 | 328 | 3.0 | 7.0 | 0.04 | 0.85 | 0.85 | 97 | 1004.4 |
| 20260507015017 | 50 | 319 | 3.0 | 8.0 | 0.03 | 0.85 | 0.84 | 97 | 1004.3 |
| 20260507014557 | 50 | 322 | 3.0 | 8.0 | 0.02 | 0.84 | 0.83 | 97 | 1004.4 |
| 20260507014015 | 50 | 320 | 4.0 | 10.0 | 0.02 | 0.84 | 0.83 | 96 | 1004.6 |
| 20260507013514 | 51 | 315 | 6.0 | 10.0 | 0.02 | 0.84 | 0.83 | 96 | 1004.8 |
| 20260507013047 | 52 | 301 | 4.0 | 10.0 | 0.01 | 0.83 | 0.82 | 97 | 1004.8 |
| 20260507012518 | 53 | 169 | 2.0 | 9.0 | 0.02 | 0.83 | 0.82 | 98 | 1004.7 |
| 20260507012013 | 53 | 185 | 2.0 | 9.0 | 0.01 | 0.82 | 0.81 | 98 | 1004.7 |
| 20260507011535 | 53 | 177 | 4.0 | 9.0 | 0.01 | 0.82 | 0.81 | 98 | 1004.7 |
| 20260507011014 | 53 | 176 | 3.0 | 10.0 | 0.01 | 0.82 | 0.81 | 98 | 1004.8 |
| 20260507010516 | 53 | 177 | 4.0 | 10.0 | 0.01 | 0.82 | 0.81 | 98 | 1004.7 |
| 20260507010055 | 53 | 155 | 3.0 | 10.0 | 0.02 | 0.82 | 0.81 | 98 | 1004.9 |
| 20260507005515 | 53 | 180 | 2.0 | 8.0 | 0.02 | 0.87 | 0.81 | 98 | 1004.9 |
| 20260507005016 | 53 | 199 | 1.0 | 5.0 | 0.02 | 0.87 | 0.81 | 98 | 1004.9 |
| 20260507004550 | 53 | 169 | 0.0 | 5.0 | 0.02 | 0.87 | 0.81 | 98 | 1004.9 |
| 20260507004013 | 53 | 169 | 0.0 | 5.0 | 0.02 | 0.87 | 0.81 | 98 | 1004.8 |
| 20260507003521 | 53 | 166 | 2.0 | 7.0 | 0.02 | 0.87 | 0.81 | 98 | 1004.9 |
| 20260507003049 | 53 | 168 | 4.0 | 7.0 | 0.03 | 0.87 | 0.81 | 98 | 1004.8 |
| 20260507002516 | 53 | 171 | 3.0 | 7.0 | 0.02 | 0.85 | 0.79 | 98 | 1004.8 |
| 20260507002014 | 53 | 149 | 2.0 | 7.0 | 0.03 | 0.85 | 0.79 | 98 | 1004.7 |
| 20260507001606 | 53 | 175 | 4.0 | 8.0 | 0.03 | 0.85 | 0.79 | 98 | 1004.7 |
| 20260507001022 | 53 | 175 | 3.0 | 8.0 | 0.03 | 0.85 | 0.79 | 98 | 1004.6 |
| 20260507000516 | 53 | 174 | 2.0 | 5.0 | 0.03 | 0.85 | 0.79 | 98 | 1004.6 |
| 20260507000058 | 53 | 194 | 1.0 | 4.0 | 0.04 | 0.85 | 0.79 | 98 | 1004.8 |
| 20260506235515 | 53 | 174 | 0.0 | 4.0 | 0.04 | 0.96 | 0.79 | 98 | 1004.9 |
| 20260506235014 | 53 | 149 | 0.0 | 4.0 | 0.04 | 0.96 | 0.79 | 98 | 1005.0 |
| 20260506234548 | 53 | 168 | 1.0 | 4.0 | 0.06 | 0.96 | 0.79 | 98 | 1005.0 |
| 20260506234014 | 53 | 182 | 1.0 | 7.0 | 0.06 | 0.96 | 0.79 | 98 | 1005.0 |
| 20260506233514 | 53 | 185 | 1.0 | 7.0 | 0.09 | 0.96 | 0.79 | 98 | 1005.1 |
| 20260506233038 | 53 | 175 | 3.0 | 6.0 | 0.12 | 0.95 | 0.78 | 98 | 1005.2 |
| 20260506232513 | 53 | 173 | 1.0 | 9.0 | 0.12 | 0.95 | 0.78 | 98 | 1005.2 |
| 20260506232016 | 53 | 91 | 3.0 | 9.0 | 0.12 | 0.94 | 0.77 | 98 | 1005.3 |
| 20260506231544 | 53 | 179 | 3.0 | 8.0 | 0.12 | 0.94 | 0.77 | 98 | 1005.2 |
| 20260506231014 | 53 | 182 | 3.0 | 6.0 | 0.12 | 0.94 | 0.77 | 98 | 1005.2 |
| 20260506230510 | 53 | 167 | 2.0 | 5.0 | 0.11 | 0.93 | 0.76 | 98 | 1005.2 |
| 20260506230026 | 53 | 205 | 1.0 | 9.0 | 0.11 | 0.91 | 0.75 | 97 | 1005.3 |
| 20260506225516 | 53 | 180 | 3.0 | 9.0 | 0.09 | 0.95 | 0.74 | 97 | 1005.5 |
| 20260506225015 | 53 | 157 | 2.0 | 9.0 | 0.11 | 0.95 | 0.74 | 97 | 1005.3 |
| 20260506224531 | 53 | 193 | 3.0 | 12.0 | 0.09 | 0.94 | 0.72 | 97 | 1005.4 |
| 20260506224013 | 54 | 166 | 5.0 | 12.0 | 0.09 | 0.93 | 0.72 | 97 | 1005.4 |
| 20260506223512 | 54 | 182 | 3.0 | 7.0 | 0.08 | 0.90 | 0.69 | 97 | 1005.6 |
| 20260506223038 | 54 | 220 | 1.0 | 5.0 | 0.04 | 0.87 | 0.66 | 98 | 1005.5 |
| 20260506222513 | 54 | 197 | 2.0 | 5.0 | 0.06 | 0.87 | 0.66 | 98 | 1005.5 |
| 20260506222019 | 54 | 168 | 2.0 | 4.0 | 0.06 | 0.85 | 0.65 | 98 | 1005.6 |
| 20260506221547 | 54 | 182 | 1.0 | 7.0 | 0.06 | 0.85 | 0.65 | 98 | 1005.5 |
| 20260506221016 | 54 | 188 | 2.0 | 10.0 | 0.07 | 0.85 | 0.65 | 98 | 1005.4 |
| 20260506220512 | 54 | 191 | 3.0 | 10.0 | 0.08 | 0.85 | 0.65 | 98 | 1005.4 |
| 20260506220059 | 54 | 172 | 3.0 | 9.0 | 0.07 | 0.85 | 0.64 | 98 | 1005.5 |
| 20260506215516 | 54 | 200 | 3.0 | 12.0 | 0.08 | 0.85 | 0.64 | 98 | 1005.5 |
| 20260506215016 | 54 | 152 | 3.0 | 12.0 | 0.08 | 0.84 | 0.63 | 98 | 1005.2 |
| 20260506214546 | 54 | 201 | 4.0 | 11.0 | 0.09 | 0.84 | 0.63 | 98 | 1005.3 |
| 20260506214014 | 54 | 198 | 2.0 | 8.0 | 0.08 | 0.83 | 0.62 | 98 | 1005.7 |
| 20260506213509 | 54 | 188 | 1.0 | 10.0 | 0.09 | 0.82 | 0.61 | 98 | 1005.7 |
| 20260506213030 | 54 | 158 | 2.0 | 10.0 | 0.09 | 0.81 | 0.59 | 98 | 1005.6 |
| 20260506212515 | 54 | 176 | 2.0 | 7.0 | 0.09 | 0.79 | 0.58 | 98 | 1005.6 |
| 20260506212013 | 54 | 155 | 1.0 | 5.0 | 0.11 | 0.79 | 0.58 | 98 | 1005.6 |
| 20260506211547 | 54 | 178 | 3.0 | 7.0 | 0.12 | 0.79 | 0.58 | 98 | 1005.6 |
| 20260506211015 | 54 | 197 | 2.0 | 8.0 | 0.14 | 0.78 | 0.57 | 98 | 1005.6 |
| 20260506210516 | 54 | 205 | 3.0 | 7.0 | 0.16 | 0.78 | 0.57 | 98 | 1006.0 |
| 20260506210100 | 54 | 195 | 2.0 | 8.0 | 0.16 | 0.77 | 0.56 | 99 | 1005.9 |
| 20260506205517 | 54 | 221 | 3.0 | 8.0 | 0.18 | 0.77 | 0.56 | 98 | 1005.8 |
| 20260506205013 | 54 | 206 | 1.0 | 4.0 | 0.18 | 0.76 | 0.55 | 98 | 1005.7 |
| 20260506204550 | 54 | 180 | 1.0 | 6.0 | 0.19 | 0.75 | 0.53 | 99 | 1005.5 |
| 20260506204018 | 54 | 169 | 0.0 | 7.0 | 0.19 | 0.74 | 0.52 | 99 | 1005.6 |
| 20260506203516 | 54 | 171 | 3.0 | 7.0 | 0.19 | 0.72 | 0.52 | 99 | 1005.9 |
| 20260506203121 | 53 | 153 | 2.0 | 5.0 | 0.19 | 0.72 | 0.51 | 99 | 1006.0 |
| 20260506202518 | 53 | 331 | 0.0 | 0.0 | 0.19 | 0.71 | 0.50 | 98 | 1005.9 |
| 20260506202014 | 53 | 331 | 0.0 | 0.0 | 0.19 | 0.69 | 0.48 | 98 | 1005.9 |
| 20260506201552 | 53 | 331 | 0.0 | 0.0 | 0.17 | 0.66 | 0.45 | 98 | 1006.1 |
| 20260506201015 | 53 | 331 | 0.0 | 0.0 | 0.17 | 0.64 | 0.42 | 98 | 1006.0 |
| 20260506200510 | 52 | 331 | 0.0 | 0.0 | 0.16 | 0.62 | 0.41 | 98 | 1005.8 |
| 20260506200052 | 52 | 331 | 0.0 | 0.0 | 0.16 | 0.59 | 0.39 | 98 | 1005.9 |
| 20260506195516 | 52 | 331 | 0.0 | 0.0 | 0.14 | 0.58 | 0.37 | 98 | 1006.0 |
| 20260506195017 | 52 | 331 | 0.0 | 0.0 | 0.14 | 0.57 | 0.36 | 98 | 1006.1 |
| 20260506194552 | 51 | 331 | 0.0 | 0.0 | 0.16 | 0.56 | 0.35 | 98 | 1006.1 |
| 20260506194017 | 51 | 331 | 0.0 | 0.0 | 0.16 | 0.55 | 0.34 | 98 | 1006.0 |
| 20260506193513 | 51 | 331 | 0.0 | 0.0 | 0.16 | 0.53 | 0.33 | 97 | 1005.9 |
| 20260506193048 | 51 | 331 | 0.0 | 0.0 | 0.16 | 0.52 | 0.32 | 97 | 1005.9 |
| 20260506192516 | 51 | 331 | 0.0 | 0.0 | 0.16 | 0.52 | 0.31 | 97 | 1005.9 |
| 20260506192017 | 51 | 331 | 0.0 | 0.0 | 0.14 | 0.50 | 0.29 | 97 | 1006.0 |
| 20260506191559 | 51 | 331 | 0.0 | 0.0 | 0.14 | 0.48 | 0.26 | 97 | 1006.4 |
| 20260506191017 | 52 | 331 | 0.0 | 0.0 | 0.14 | 0.47 | 0.26 | 97 | 1006.6 |
| 20260506190515 | 52 | 331 | 0.0 | 0.0 | 0.13 | 0.45 | 0.25 | 98 | 1006.6 |
| 20260506190100 | 52 | 331 | 0.0 | 1.0 | 0.12 | 0.44 | 0.22 | 98 | 1006.8 |
| 20260506185515 | 52 | 331 | 0.0 | 1.0 | 0.11 | 0.42 | 0.22 | 97 | 1006.8 |
| 20260506185017 | 52 | 331 | 0.0 | 2.0 | 0.11 | 0.42 | 0.21 | 97 | 1006.8 |
| 20260506184601 | 52 | 331 | 1.0 | 3.0 | 0.09 | 0.39 | 0.19 | 97 | 1007.0 |
| 20260506184016 | 52 | 331 | 0.0 | 4.0 | 0.09 | 0.39 | 0.18 | 97 | 1006.6 |
| 20260506183516 | 52 | 331 | 2.0 | 4.0 | 0.08 | 0.38 | 0.17 | 97 | 1006.8 |
| 20260506183049 | 51 | 331 | 1.0 | 3.0 | 0.09 | 0.37 | 0.16 | 97 | 1006.8 |
| 20260506182516 | 51 | 331 | 1.0 | 3.0 | 0.08 | 0.36 | 0.14 | 97 | 1006.9 |
| 20260506182019 | 51 | 331 | 1.0 | 3.0 | 0.09 | 0.35 | 0.14 | 96 | 1006.7 |
| 20260506181556 | 51 | 331 | 1.0 | 3.0 | 0.08 | 0.34 | 0.13 | 96 | 1006.7 |
| 20260506181015 | 51 | 331 | 2.0 | 3.0 | 0.08 | 0.33 | 0.12 | 96 | 1006.7 |
| 20260506180516 | 51 | 331 | 1.0 | 4.0 | 0.08 | 0.33 | 0.12 | 96 | 1006.9 |
| 20260506180031 | 51 | 331 | 2.0 | 4.0 | 0.07 | 0.32 | 0.11 | 96 | 1007.0 |
| 20260506175517 | 51 | 330 | 2.0 | 5.0 | 0.07 | 0.32 | 0.11 | 96 | 1007.2 |
| 20260506175015 | 51 | 334 | 3.0 | 5.0 | 0.06 | 0.31 | 0.09 | 95 | 1007.3 |
| 20260506174604 | 52 | 331 | 4.0 | 5.0 | 0.06 | 0.31 | 0.09 | 95 | 1007.3 |
| 20260506174017 | 52 | 309 | 1.0 | 3.0 | 0.04 | 0.29 | 0.09 | 96 | 1007.5 |
| 20260506173517 | 52 | 309 | 1.0 | 3.0 | 0.04 | 0.29 | 0.08 | 96 | 1007.7 |
| 20260506173058 | 52 | 295 | 1.0 | 3.0 | 0.04 | 0.28 | 0.07 | 95 | 1008.0 |
| 20260506172515 | 52 | 295 | 2.0 | 3.0 | 0.03 | 0.26 | 0.06 | 95 | 1008.0 |
| 20260506172017 | 52 | 295 | 1.0 | 3.0 | 0.02 | 0.26 | 0.04 | 95 | 1008.0 |
| 20260506171529 | 52 | 341 | 1.0 | 3.0 | 0.01 | 0.25 | 0.04 | 95 | 1008.3 |
| 20260506171016 | 52 | 344 | 0.0 | 2.0 | 0.01 | 0.25 | 0.04 | 95 | 1008.3 |
| 20260506170516 | 52 | 344 | 0.0 | 6.0 | 0.01 | 0.25 | 0.04 | 95 | 1008.4 |
| 20260506170050 | 52 | 300 | 4.0 | 6.0 | 0.01 | 0.25 | 0.04 | 93 | 1008.7 |
| 20260506165510 | 53 | 332 | 0.0 | 2.0 | 0.01 | 0.25 | 0.04 | 95 | 1008.5 |
| 20260506165014 | 52 | 332 | 0.0 | 0.0 | 0.01 | 0.25 | 0.04 | 95 | 1008.3 |
| 20260506164557 | 52 | 332 | 0.0 | 0.0 | 0.01 | 0.25 | 0.04 | 93 | 1008.5 |
| 20260506164013 | 52 | 332 | 0.0 | 2.0 | 0.01 | 0.25 | 0.04 | 91 | 1008.7 |
| 20260506163515 | 52 | 332 | 1.0 | 2.0 | 0.00 | 0.24 | 0.03 | 90 | 1008.6 |
| 20260506163104 | 52 | 332 | 0.0 | 1.0 | 0.00 | 0.24 | 0.03 | 92 | 1008.7 |
| 20260506162517 | 52 | 332 | 0.0 | 2.0 | 0.00 | 0.24 | 0.03 | 91 | 1008.6 |
| 20260506162014 | 52 | 332 | 0.0 | 2.0 | 0.00 | 0.24 | 0.03 | 91 | 1008.7 |
| 20260506161557 | 52 | 332 | 0.0 | 3.0 | 0.00 | 0.24 | 0.03 | 90 | 1008.5 |
| 20260506161018 | 52 | 332 | 1.0 | 3.0 | 0.00 | 0.24 | 0.03 | 89 | 1009.1 |
| 20260506160515 | 52 | 332 | 0.0 | 3.0 | 0.00 | 0.24 | 0.03 | 89 | 1009.0 |
| 20260506160051 | 52 | 332 | 1.0 | 4.0 | 0.00 | 0.24 | 0.03 | 88 | 1009.3 |
| 20260506155516 | 52 | 332 | 3.0 | 5.0 | 0.00 | 0.24 | 0.03 | 88 | 1009.1 |
| 20260506155018 | 52 | 314 | 3.0 | 5.0 | 0.00 | 0.24 | 0.03 | 88 | 1009.1 |
| 20260506154558 | 53 | 314 | 2.0 | 4.0 | 0.00 | 0.24 | 0.03 | 89 | 1009.1 |
| 20260506154014 | 53 | 314 | 2.0 | 4.0 | 0.00 | 0.24 | 0.03 | 89 | 1009.1 |
| 20260506153516 | 53 | 295 | 2.0 | 3.0 | 0.00 | 0.24 | 0.03 | 89 | 1008.9 |
| 20260506153112 | 52 | 295 | 0.0 | 3.0 | 0.00 | 0.24 | 0.03 | 89 | 1008.9 |
| 20260506152518 | 52 | 295 | 0.0 | 3.0 | 0.00 | 0.24 | 0.03 | 88 | 1008.7 |
| 20260506152017 | 52 | 201 | 0.0 | 0.0 | 0.00 | 0.24 | 0.03 | 88 | 1008.7 |
| 20260506151558 | 52 | 201 | 0.0 | 0.0 | 0.00 | 0.24 | 0.03 | 88 | 1008.8 |
| 20260506151016 | 52 | 201 | 0.0 | 0.0 | 0.00 | 0.24 | 0.03 | 88 | 1008.9 |
| 20260506150513 | 52 | 201 | 0.0 | 3.0 | 0.00 | 0.24 | 0.03 | 87 | 1009.0 |
| 20260506150058 | 51 | 201 | 0.0 | 3.0 | 0.00 | 0.24 | 0.03 | 89 | 1009.1 |
| 20260506145514 | 51 | 201 | 1.0 | 2.0 | 0.00 | 0.24 | 0.03 | 90 | 1009.0 |
| 20260506145017 | 51 | 201 | 0.0 | 1.0 | 0.00 | 0.24 | 0.03 | 90 | 1009.1 |
| 20260506144551 | 51 | 201 | 0.0 | 1.0 | 0.00 | 0.24 | 0.03 | 90 | 1009.6 |
| 20260506144017 | 51 | 201 | 0.0 | 0.0 | 0.00 | 0.24 | 0.03 | 90 | 1009.5 |
| 20260506143519 | 51 | 201 | 0.0 | 0.0 | 0.00 | 0.24 | 0.03 | 90 | 1009.7 |
| 20260506143059 | 51 | 201 | 0.0 | 0.0 | 0.00 | 0.24 | 0.03 | 90 | 1009.7 |
| 20260506142517 | 52 | 201 | 0.0 | 0.0 | 0.00 | 0.24 | 0.03 | 91 | 1009.8 |
| 20260506142013 | 52 | 197 | 0.0 | 0.0 | 0.00 | 0.24 | 0.03 | 91 | 1009.9 |
| 20260506141554 | 52 | 197 | 0.0 | 0.0 | 0.00 | 0.24 | 0.03 | 88 | 1009.9 |
| 20260506141020 | 52 | 197 | 0.0 | 0.0 | 0.00 | 0.24 | 0.03 | 89 | 1009.9 |
| 20260506140517 | 52 | 197 | 0.0 | 0.0 | 0.00 | 0.24 | 0.03 | 90 | 1010.0 |
| 20260506140053 | 52 | 197 | 0.0 | 0.0 | 0.00 | 0.24 | 0.03 | 91 | 1010.1 |
| 20260506135518 | 52 | 197 | 0.0 | 0.0 | 0.00 | 0.24 | 0.03 | 89 | 1010.1 |
| 20260506135020 | 52 | 197 | 0.0 | 0.0 | 0.00 | 0.24 | 0.03 | 90 | 1010.1 |
| 20260506134550 | 52 | 197 | 0.0 | 1.0 | 0.00 | 0.24 | 0.03 | 90 | 1010.1 |
| 20260506134017 | 52 | 197 | 0.0 | 2.0 | 0.00 | 0.24 | 0.03 | 91 | 1010.2 |
| 20260506133515 | 52 | 197 | 0.0 | 2.0 | 0.00 | 0.24 | 0.03 | 90 | 1010.3 |
| 20260506133057 | 52 | 197 | 0.0 | 3.0 | 0.00 | 0.24 | 0.03 | 90 | 1010.4 |
| 20260506132518 | 51 | 197 | 1.0 | 3.0 | 0.00 | 0.24 | 0.03 | 89 | 1010.3 |
| 20260506132016 | 51 | 197 | 1.0 | 3.0 | 0.00 | 0.24 | 0.03 | 88 | 1010.2 |
| 20260506131601 | 51 | 197 | 1.0 | 3.0 | 0.00 | 0.24 | 0.03 | 89 | 1010.1 |
| 20260506131018 | 51 | 201 | 0.0 | 3.0 | 0.00 | 0.24 | 0.03 | 89 | 1010.0 |
| 20260506130520 | 51 | 201 | 2.0 | 4.0 | 0.00 | 0.24 | 0.03 | 90 | 1010.1 |
| 20260506130109 | 51 | 202 | 1.0 | 4.0 | 0.00 | 0.24 | 0.03 | 90 | 1010.1 |
| 20260506125516 | 51 | 202 | 1.0 | 3.0 | 0.00 | 0.24 | 0.03 | 90 | 1010.1 |
| 20260506125011 | 51 | 183 | 1.0 | 3.0 | 0.00 | 0.24 | 0.03 | 92 | 1009.8 |